Location: Deuil
(48.9767°N, 2.3272°E)
Time: 02:40:11
(UTC+00:00)

Cosmos 2360 Rocket - Pass Details

Date: 24 May 2022
Orbit: 832 x 846 km, 71.0° (Epoch: 03 July)

Event Time Altitude Azimuth Distance (km) Brightness Sun altitude
Rises 01:52:48 0° 272° (W) 3,388 5.1 -14.9°
Reaches altitude 10° 01:56:30 10° 296° (WNW) 2,460 4.6 -14.6°
Maximum altitude 01:59:30 14° 328° (NNW) 2,164 4.7 -14.3°
Drops below altitude 10° 02:02:31 10° 1° (N) 2,470 5.6 -14.1°
Sets 02:06:15 0° 25° (NNE) 3,411 7.3 -13.7°
